Flag Weather past 2 weeks in Colchester County, Nova Scotia, Canada

Now
25 °F

Passing clouds.


Feels Like: 18 °F
Forecast: 16 / 27 °F
Wind: 6 mph from North

Location: Halifax International Airport

Current Time: Nov 28, 2014 at 11:46:14 PM

Latest Report: Nov 28, 2014 at 11:00 PM


Visibility: 15 mi

Pressure: 29.96 "Hg

Humidity: 80%

Dew point: 19 °F

Location of Colchester CountyLocation

Historic Weather in Colchester County — Graph

°F

Colchester County temperature yesterday

Maximum temperature yesterday: 39 °F (at 11:00 AM)
Minimum temperature yesterday: 28 °F (at 8:00 PM)
Average temperature yesterday: 34 °F

Past Weeks' High & Low Weather Summary

 TemperatureHumidityPressure
High61 °F (Nov 18, 2:00 AM)100% (Nov 14, 12:55 PM)30.34 "Hg (Nov 14, 12:55 PM)
Low21 °F (Nov 16, 3:00 AM)48% (Nov 19, 3:00 PM)29.27 "Hg (Nov 27, 9:48 AM)
Average36 °F83%29.90 "Hg
* Reported Nov 13 10:00 PM — Nov 28 10:00 PM, Colchester County, Weather by CustomWeather, © 2014

Note: Actual official high and low records may vary slightly from our data, if they occured in-between our weather recording intervals... More about our weather records

Advertising

Colchester County weather history for previous 24 hours

 ConditionsComfort  
Time TempWeatherWind HumidityBarometerVisibility
10:00 PM
Nov 28
27 °FOvercast.8 mph74%29.96 "Hg15 mi
9:00 PM27 °FOvercast.9 mph80%29.95 "Hg15 mi
8:00 PM27 °FOvercast.12 mph80%29.94 "Hg15 mi
7:00 PM27 °FOvercast.10 mph86%29.94 "Hg15 mi
6:00 PM27 °FOvercast.9 mph86%29.93 "Hg15 mi
5:00 PM27 °FOvercast.9 mph86%29.92 "Hg15 mi
4:00 PM27 °FSnow flurries. Overcast.9 mph93%29.92 "Hg15 mi
3:00 PM27 °FSnow flurries. Low clouds.9 mph86%29.90 "Hg15 mi
2:00 PM27 °FSnow flurries. More clouds than sun.10 mph93%29.89 "Hg4 mi
1:48 PM28 °FSnow flurries. Low clouds.10 mph86%29.89 "Hg4 mi
1:00 PM28 °FOvercast.10 mph80%29.90 "Hg15 mi
12:00 PM28 °FOvercast.10 mph80%29.92 "Hg15 mi
11:00 AM28 °FOvercast.9 mph80%29.93 "Hg15 mi
10:00 AM28 °FOvercast.7 mph80%29.96 "Hg15 mi
9:00 AM27 °FOvercast.7 mph80%29.96 "Hg15 mi
8:00 AM27 °FOvercast.9 mph80%29.93 "Hg15 mi
7:00 AM27 °FOvercast.7 mph80%29.95 "Hg15 mi
6:00 AM27 °FOvercast.9 mph80%29.94 "Hg15 mi
5:00 AM27 °FOvercast.8 mph80%29.95 "Hg15 mi
4:00 AM27 °FMostly cloudy.8 mph80%29.93 "Hg15 mi
3:00 AM27 °FMostly cloudy.3 mph86%29.95 "Hg15 mi
2:00 AM27 °FOvercast.12 mph86%29.91 "Hg15 mi
1:00 AM28 °FMostly cloudy.9 mph86%29.94 "Hg15 mi
12:00 AM28 °FMostly cloudy.10 mph86%29.93 "Hg15 mi
11:00 PM
Nov 27
28 °FOvercast.14 mph86%29.91 "Hg15 mi
Weather by CustomWeather, © 2014

See weather overviewHow to use our weather pages